TimeMDT,TemperatureF,Dew PointF,Humidity,Sea Level PressureIn,VisibilityMPH,Wind Direction,Wind SpeedMPH,Gust SpeedMPH,PrecipitationIn,Events,Conditions,WindDirDegrees,DateUTC
12:53 AM,59.0,42.1,53,29.61,10.0,SW,8.1,-,N/A,,Partly Cloudy,220,2011-10-07 06:53:00
1:53 AM,55.9,41.0,57,29.66,10.0,WSW,8.1,-,N/A,,Clear,250,2011-10-07 07:53:00
2:53 AM,55.9,36.0,47,29.68,10.0,West,11.5,-,N/A,,Partly Cloudy,260,2011-10-07 08:53:00
3:53 AM,53.1,37.0,55,29.70,10.0,WSW,6.9,-,N/A,,Mostly Cloudy,250,2011-10-07 09:53:00
4:53 AM,53.1,36.0,52,29.72,10.0,West,5.8,-,N/A,,Mostly Cloudy,260,2011-10-07 10:53:00
5:53 AM,52.0,36.0,54,29.75,10.0,WSW,8.1,-,N/A,,Mostly Cloudy,250,2011-10-07 11:53:00
6:53 AM,48.9,36.0,61,29.77,10.0,SSW,8.1,-,N/A,,Partly Cloudy,210,2011-10-07 12:53:00
7:53 AM,48.9,35.1,59,29.79,10.0,SSW,3.5,-,N/A,,Clear,210,2011-10-07 13:53:00
8:53 AM,52.0,37.0,57,29.81,10.0,WSW,9.2,-,N/A,,Clear,240,2011-10-07 14:53:00
9:53 AM,63.0,28.0,27,29.81,10.0,SW,11.5,-,N/A,,Clear,230,2011-10-07 15:53:00
10:53 AM,66.2,30.2,26,29.85,10.0,SSW,17.3,25.3,N/A,,Clear,200,2011-10-07 16:53:00
11:53 AM,70.0,32.0,25,29.78,10.0,SSW,16.1,-,N/A,,Clear,200,2011-10-07 17:53:00
12:53 PM,73.0,28.9,20,29.76,10.0,SSW,19.6,31.1,N/A,,Clear,210,2011-10-07 18:53:00
1:53 PM,75.0,30.0,19,29.74,10.0,South,20.7,29.9,N/A,,Clear,190,2011-10-07 19:53:00
2:53 PM,77.0,33.1,20,29.73,10.0,SSW,15.0,24.2,N/A,,Clear,200,2011-10-07 20:53:00
3:53 PM,75.9,33.1,21,29.75,10.0,South,15.0,24.2,N/A,,Clear,190,2011-10-07 21:53:00
4:53 PM,75.0,37.0,25,29.76,10.0,South,17.3,25.3,N/A,,Clear,180,2011-10-07 22:53:00
5:53 PM,72.0,41.0,33,29.75,10.0,South,13.8,-,N/A,,Clear,170,2011-10-07 23:53:00
6:53 PM,66.0,42.1,42,29.76,10.0,South,4.6,-,N/A,,Clear,180,2011-10-08 00:53:00
7:53 PM,60.1,46.0,60,29.80,10.0,Calm,Calm,-,N/A,,Partly Cloudy,0,2011-10-08 01:53:00
8:53 PM,59.0,50.0,72,29.83,10.0,Calm,Calm,-,0.00,Rain,Light Rain,0,2011-10-08 02:53:00
9:53 PM,62.1,50.0,65,29.78,10.0,ESE,5.8,-,0.00,,Overcast,120,2011-10-08 03:53:00
10:53 PM,63.0,55.0,75,29.75,10.0,ESE,10.4,-,0.00,,Partly Cloudy,110,2011-10-08 04:53:00
11:07 PM,64.4,55.4,73,29.80,10.0,East,10.4,-,N/A,,Mostly Cloudy,90,2011-10-08 05:07:00
11:53 PM,63.0,57.0,81,29.77,10.0,ESE,12.7,-,N/A,Thunderstorm,Overcast,120,2011-10-08 05:53:00